sat.trackr.live / text

‹ back to catalog

STARLINK-35835

NORAD 66569 · 2025-268N

PAYLOAD ACTIVE UNKNOWN

§ Identity

Operator
Country
US
Launch date
2025-11-21
Launch site
AFETR
Launch vehicle
Mass (kg)
RCS (m²)

Purposes: comms

External: N2YO · Heavens-Above · Gunter

§ Orbital elements

Epoch: 2026-05-24T17:31:04.983456Z

Period
94.27 min
Inclination
43.0003°
Eccentricity
0.0001549
Mean motion
15.27585329 rev/d
Perigee alt
482.0 km
Apogee alt
484.1 km
Semi-major
6,861.2 km
B*
5.8151e-4
RAAN
277.2350°
Arg perigee
264.1484°
Mean anomaly
95.9191°
Rev number
2,959

§ Raw data

STARLINK-358351 66569U 25268N   26144.72991879  .00015777  00000+0  58151-3 0  99932 66569  43.0003 277.2350 0001549 264.1484  95.9191 15.27585329 29594

JSON: /api/v1/satellites/66569 · /tle

For live sub-satellite position, see the globe view (requires WebGL).

§ Visibility from observer

Set your observer location to see the next 7 days of passes ≥ 10°. The values pass through the URL so the page stays shareable.

No JS? Fill the form by hand. The geolocation button needs JavaScript.